STARLINK-2636, 48357

Orbit data source: Space-Track

STARLINK-2636, 48357 is a payload satellite owned by SpaceX/Seattle (US) in LEO that was launched on Tue, 04 May 2021 UTC via an FALCON 9 launch vehicle from the Air Force Eastern Test Range (AFETR). Payload-class satellites include a variety of spacecraft equipped with specific instruments for various scientific and technological missions. These include communications satellites like Starlink; space stations such as the ISS; scientific satellites like the Hubble; Earth observation satellites from companies like Planet Labs, Umbra, and HawkEye 360; GPS; miniature CubeSats for education and research; and military/defense satellites.

Loading next visibility...
Identifier
48357, 2021-038E
Orbit
LEO
Country
Flag of USUS
Related business
Manufacturer
SpaceX/Seattle
Mission
Operational Commercial Communications
Bus & Motor
STARLINK, Unknown motor
Mass
260 kg wet, ~248 kg dry
Launch date (UTC)
2021-05-04 (5 years ago)
Launch vehicle
FALCON 9
Launch site
Air Force Eastern Test Range (AFETR)
Object type
Payload
Rocket body
Debris
Shape & HBR
Box + 1 Pan, 10.1 m
Radar Cross Section
13.562 m², Large (>1 m²)

Expand to show TLE details & history
Last TLE update: 2 days ago

TLE from 2 days ago
0 STARLINK-2636
1 48357U 21038E   26171.43451421  .00001082  00000-0  46634-4 0  9990
2 48357  53.1594 240.1781 0001481  73.3398 286.7766 15.31704029282822
Epoch: 2026-06-20T10:25Z
TLE epoch observation values (Epoch: 2026-06-20T10:25:42.027Z)
Latitude
-0.00003°
Longitude
175.10378°
Altitude
471.336 km
Speed
7.632 km/s
True Right ascension
16h 00m 42s
True Declination
0° 00' 00"
Sunlit
Object was in full shadow at epoch
Visualization orbit readout
Latitude
Unknown
Longitude
Unknown
Altitude
Unknown
Speed
Unknown
Apparent Right ascension
Unknown
Apparent Declination
Unknown
Sunlit
N/A
Visualization observer readout
Local Sidereal Time
21:29:03
Azimuth
Unknown
Elevation
Unknown
Doppler factor
Unknown
Orbital elements
Apogee altitude
471.999 km
Perigee altitude
469.97 km
Semi-major axis
6,849.122 km
Eccentricity
0.00015
Inclination
53.1594°
RAAN
240.1781°
Arg. of periapsis
73.3398°
True anomaly
286.76035°
Mean anomaly
286.7766°
Eccentric anomaly
286.76848°
Mean motion
3.82905 °/min
Orbital period
94.02 mins
BSTAR
0.000046634
Loading maneuver chart data...
Computing Atmospheric mass density...

Documentation

Showing up to 5 results
|